Regional Weather Roundup
Issued by NWS

Home | Current Version | Previous Version | Text Only | Print | Product List | Glossary On
Versions: 1 2 3 4 5 6 7 8 9 10 11 12 13 14 15 16 17 18 19 20 21 22 23 24 25 26 27 28 29 30 31 32 33 34 35 36 37 38 39 40 41 42 43 44 45 46 47 48 49 50
263
ASUS45 KTFX 251810
RWRMT
MONTANA REGIONAL WEATHER ROUNDUP
NATIONAL WEATHER SERVICE GREAT FALLS MT
1200 PM MDT MON JUL 25 2016

NOTE: "FAIR" INDICATES FEW OR NO CLOUDS BELOW 12000 FEET WITH NO
SIGNIFICANT WEATHER AND/OR OBSTRUCTIONS TO VISIBILITY.

MTZ001>007-043-251900-
WEST OF THE DIVIDE

CITY           SKY/WX    TMP DP  RH WIND       PRES   REMARKS
KALISPELL      SUNNY     79  53  40 NE7       30.08F
MISSOULA       SUNNY     78  47  33 VRB3      30.10F
BUTTE          SUNNY     78  38  23 CALM      30.18F
MULLAN PASS    SUNNY     67  44  43 CALM      30.24S
ANACONDA         N/A     75  45  33 N7        30.15F
DEER LODGE       N/A     77  43  29 CALM      30.17F
EUREKA           N/A     77  52  41 S5        30.09F
HAMILTON         N/A     73  46  38 CALM      30.11S
LIBBY            N/A     77  50  38 W6        30.08S
PLAINS           N/A     82  50  32 MISG      30.06F
RONAN            N/A     76  55  47 W1        30.14S
$$

MTZ008-052>055-251900-
SOUTHWEST MONTANA

CITY           SKY/WX    TMP DP  RH WIND       PRES   REMARKS
BOZEMAN        SUNNY     82  45  27 NE3       30.12F
DILLON         SUNNY     76  43  30 N6        30.16S
W YELLOWSTONE  SUNNY     75  28  17 SW9       30.28F
ENNIS          SUNNY     79  32  18 VRB5      30.20F
THREE FORKS      N/A     80 -22   1 CALM      30.10F
TWIN BRIDGES     N/A     77  40  26 S5        30.12F
$$

MTZ009-010-012-014-046-048-049-054-251900-
EAST SLOPES AND CENTRAL MONTANA

CITY           SKY/WX    TMP DP  RH WIND       PRES   REMARKS
CUT BANK       SUNNY     76  52  43 N18       30.14S
GREAT FALLS    SUNNY     81  43  26 CALM      30.10S
MALMSTROM AFB  SUNNY     81  44  27 SW6       30.09F
HELENA         SUNNY     84  41  21 NE8       30.09F
CHOTEAU          N/A     81  46  30 N9G16     30.15R
CONRAD           N/A     80  56  43 W8        30.13F
$$

MTZ011-013-016-021-045-047-050-051-251900-
NORTH CENTRAL MONTANA

CITY           SKY/WX    TMP DP  RH WIND       PRES   REMARKS
HAVRE          SUNNY     83  51  33 MISG      30.02F
LEWISTOWN      SUNNY     80  50  34 NW10      30.12S
N BAR RANCH      N/A     82  45  26 NW12G17   30.14S
CHINOOK          N/A     82  54  36 W5        30.01F
$$

MTZ017>020-022>027-061-062-251900-
NORTHEAST MONTANA

CITY           SKY/WX    TMP DP  RH WIND       PRES   REMARKS
GLASGOW        SUNNY     85  50  29 VRB3      29.99S
JORDAN           N/A     92  44  19 VRB5      29.99S
SIDNEY         SUNNY     86  58  38 VRB7      29.98S
WOLF POINT     SUNNY     89  53  29 NW6       29.98F
PLENTYWOOD       N/A     84  50  30 NW7       30.00S
POPLAR           N/A     86  52  30 NW6       29.99F
SCOBEY           N/A     84  52  33 E5        30.01S
$$

MTZ028>42-056>058-251900-
SOUTHCENTRAL AND SOUTHEAST MONTANA

CITY           SKY/WX    TMP DP  RH WIND       PRES   REMARKS
BAKER          SUNNY     93  45  19 VRB3      30.02S
BILLINGS       MOSUNNY   85  46  25 S7        30.05F
LIVINGSTON     SUNNY     84  34  16 NW8       30.11F
MILES CITY     SUNNY     91  48  22 CALM      29.99S
EKALAKA          N/A     91  46  21 N3        30.02F
FORSYTH          N/A     88  48  25 CALM      30.00S
LAUREL           N/A     86  47  25 E2        30.04F
ROUNDUP          N/A     86  44  22 N8        29.98R
$$

REGIONAL REPORTS...DAKOTAS

CITY           SKY/WX    TMP DP  RH WIND       PRES   REMARKS
WILLISTON      SUNNY     87  53  31 NE8       29.98S
MINOT          SUNNY     87  59  38 E5        29.95F
DICKINSON      SUNNY     87  54  32 VRB3      29.98F
BEACH            N/A     90  50  25 N7        30.03F
CROSBY           N/A     81  64  57 NE3       30.02R
WATFORD CITY     N/A    N/A N/A N/A MISG        N/A
BISMARCK       SUNNY     86  64  47 S9        29.97F
GRAND FORKS    MOSUNNY   83  61  47 SE8       29.98F
FARGO          SUNNY     85  60  42 S9        30.01F
BUFFALO SD       N/A    N/A N/A N/A MISG      29.94F
RAPID CITY     SUNNY     88  56  33 S16G23    30.06F
$$

REGIONAL REPORTS...WYOMING/IDAHO/WASHINGTON

CITY           SKY/WX    TMP DP  RH WIND       PRES   REMARKS
GILLETTE       SUNNY     90  43  19 SE15      30.09F
SHERIDAN       SUNNY     91  40  16 VRB5      30.06S
BUFFALO WY     SUNNY     91  32  12 E13G18    30.12F
CODY           SUNNY     84  39  20 N7        30.14S
YELLOWSTONE LA   N/A     69  32  25 VRB5      30.39F
IDAHO FALLS    SUNNY     83  40  21 N5        30.14F
SALMON         SUNNY     79  45  29 N5        30.07F
BOISE          SUNNY     85  41  21 W6        30.03S
SPOKANE        MOSUNNY   82  47  29 VRB3      30.06S
$$

REGIONAL REPORTS...ALBERTA

CITY           SKY/WX    TMP DP  RH WIND       PRES   REMARKS
EDMONTON       SUNNY     72  48  43 W3        30.07F
CALGARY        MOSUNNY   70  50  49 SE9       30.14F
LETHBRIDGE     MOSUNNY   72  55  56 N5G32     30.13S
MEDICINE HAT   MOSUNNY   79  57  47 NE10G18   30.06R
WATERTON GATE    N/A     72  54  53 NW6         N/A
CARDSTON         N/A     70  54  56 NW8         N/A
MILK RIVER       N/A     73  57  56 N14G21      N/A
ONEFOUR          N/A     79  50  36 W7          N/A
$$

REGIONAL REPORTS...SASKATCHEWAN

CITY           SKY/WX    TMP DP  RH WIND       PRES   REMARKS
SWIFT CURRENT  SUNNY     75  61  60 NE12G17   30.05R
REGINA         MOSUNNY   79  63  57 VRB3      29.99S
SASKATOON      MOSUNNY   77  55  47 N14G21    30.03S
VAL MARIE        N/A     82  46  28 NE3         N/A
ROCKGLEN         N/A     82  46  28 NW7         N/A
ASSINIBOIA       N/A     70  48  46 W6          N/A
$$




USA.gov is the U.S. government's official web portal to all federal, state and local government web resources and services.